Location: Laterina
(43.5167°N, 11.7167°E)
Time: 15:44:14
(UTC+00:00)

OBJECT-B - Pass Details

Date: 24 September 2020
Orbit: 421 x 433 km, 97.0° (Epoch: 09 October)

Event Time Altitude Azimuth Distance (km) Brightness Sun altitude
Exits shadow 19:28:48 20° 344° (NNW) 1,060 3.2 -25.9°
Drops below altitude 10° 19:29:54 10° 346° (NNW) 1,523 4.0 -26.1°
Sets 19:31:55 0° 348° (NNW) 2,396 5.1 -26.4°
